Temp
57 57 57 56 54 53 55 58 56 83 88 65 65 61 67 67 77 82 79 80 78 76 77 74 77 76 82 91 88 79 83 69 68 76 83 87 79 73 68 57 57 59 58 61
57 57 56 55 54 54 51 50 60 79 82 61 63 69 71 76 76 77 77 77 81 83 75 66 75 81 91 91 87 81 82 73 63 67 78 83 79 78 72 68 64 58 55 61
57 57 56 55 54 54 52 52 55 68 70 74 69 66 68 71 82 79 81 79 81 79 73 77 72 78 88 92 90 83 80 69 64 61 69 77 73 79 76 69 58 60 61 67
57 57 56 55 55 54 52 56 58 64 57 60 59 64 68 69 70 81 82 78 76 74 68 71 71 78 78 89 86 83 81 64 67 71 78 80 80 79 78 69 67 61 65 67
57 57 56 56 55 54 55 56 54 58 55 60 64 64 65 69 73 75 71 70 79 77 69 67 65 71 71 71 78 84 82 64 69 66 77 80 77 81 80 80 77 73 72 68
57 56 56 56 55 54 56 60 62 56 54 58 58 63 65 72 77 71 75 72 75 75 73 77 74 76 78 76 71 70 70 67 61 58 69 70 64 71 75 77 81 77 68 71
57 57 57 56 56 55 53 55 56 53 49 56 57 61 68 71 66 60 67 72 69 74 82 82 79 78 78 80 73 72 63 62 61 58 61 52 67 79 80 73 74 75 76 77
57 57 57 57 56 55 53 56 55 54 46 54 59 61 63 68 70 69 71 75 73 79 75 67 64 63 65 71 76 68 65 59 53 53 55 62 72 78 72 69 64 75 73 75
57 57 57 57 56 56 54 55 59 58 50 53 61 57 62 59 60 66 73 81 79 78 65 63 54 57 62 62 66 70 66 62 55 49 47 48 65 77 81 75 58 73 77 75
57 57 57 57 57 56 53 55 59 56 50 58 60 55 54 62 60 60 64 64 70 72 61 58 57 59 67 58 58 57 58 58 53 50 49 56 71 75 81 57 60 73 75 74
56 57 56 56 57 56 54 54 59 56 53 56 62 65 57 59 59 53 59 62 65 63 57 59 59 61 66 63 63 57 59 55 52 56 51 49 71 73 64 65 68 74 75 72
56 56 56 56 56 56 55 52 60 62 55 57 64 66 69 66 66 60 60 58 58 61 57 59 59 61 62 60 55 64 51 55 57 55 56 62 64 62 70 73 69 71 73 75
55 56 56 56 56 56 55 52 56 56 53 59 60 59 70 73 72 73 55 61 62 60 62 57 60 59 65 58 52 59 61 59 55 56 58 60 62 64 66 66 70 72 74 74
55 55 56 56 56 55 55 52 58 56 56 50 58 72 66 73 71 70 68 64 65 63 62 57 57 54 65 60 57 54 56 57 55 55 59 63 65 67 67 73 74 77 77 75
55 55 55 56 55 55 54 56 59 61 54 49 53 64 70 71 68 68 68 63 60 59 57 57 57 61 60 64 64 57 61 55 52 48 57 56 58 64 75 73 74 75 74 75
55 55 55 56 55 54 53 52 61 60 58 51 50 65 64 67 67 65 63 62 60 60 58 59 63 65 61 55 56 66 64 65 63 56 61 62 68 72 76 73 74 75 73 74
54 55 55 55 54 53 49 48 55 55 55 50 51 55 65 68 65 64 62 63 61 61 59 58 59 61 61 57 50 64 67 67 67 71 70 67 68 66 72 73 75 74 75 74
54 55 55 54 54 52 50 59 57 55 52 54 48 54 58 66 58 57 65 59 59 59 59 61 59 60 59 53 60 64 67 68 67 68 70 68 67 67 68 71 72 70 69 70
55 55 55 53 52 53 58 60 57 58 53 47 53 51 51 66 61 62 61 62 55 62 56 58 62 58 54 61 64 65 65 63 64 68 69 68 66 66 67 68 69 66 66 68
55 52 49 46 56 61 60 56 52 52 55 53 50 58 54 62 60 58 58 59 56 52 59 63 57 55 58 65 67 66 67 67 68 63 60 62 62 64 64 65 66 66 66 68
52 48 45 53 59 58 55 50 49 51 50 55 55 56 54 63 53 54 58 53 57 52 56 57 55 48 55 61 61 64 66 67 67 66 66 65 64 63 64 64 66 67 66 66
48 47 52 55 54 51 47 47 51 52 50 57 55 57 59 58 59 55 56 53 56 51 62 57 47 50 56 58 59 61 62 64 65 66 64 65 66 66 64 64 65 64 65 66
52 48 47 47 47 37 42 42 48 49 57 58 58 54 58 57 58 56 54 52 50 60 53 47 47 52 55 56 58 59 62 63 63 63 64 65 65 66 65 63 65 65 64 67
44 42 33 40 42 48 51 53 55 59 60 58 59 55 55 57 53 56 52 55 56 51 49 41 49 51 53 55 58 59 59 60 61 61 62 62 62 62 63 64 64 64 63 64
43 47 36 45 54 59 59 61 59 59 61 58 56 56 56 54 53 54 52 52 49 49 44 48 51 53 55 53 56 58 59 58 58 60 60 60 60 59 60 61 61 59 56 56
49 50 46 51 50 53 58 56 56 62 59 59 58 54 51 52 52 51 50 51 45 46 51 54 54 53 53 53 55 57 57 57 58 58 58 58 58 57 56 59 59 59 58 56
49 48 51 46 48 48 57 58 57 62 59 52 54 50 50 56 50 49 51 45 48 52 53 55 55 54 54 55 55 56 57 57 57 57 58 58 58 58 58 58 58 59 61 60
MSLP
1019.57 1019.00 1018.34 1017.47 1016.57 1015.31 1013.71 1011.69 1007.52 1001.63 1000.99 1003.28 1003.17 1002.55 1001.43 1000.09 998.78 998.19 997.06 996.23 995.15 994.20 993.52 993.29 992.46 992.48 992.35 992.88 993.74 994.24 994.72 995.48 995.73 994.72 994.32 994.76 995.65 996.86 998.41 1000.32 1001.40 1001.53 1001.31 1000.60
1019.45 1018.97 1018.48 1017.67 1016.96 1016.46 1015.79 1012.84 1007.68 1002.44 1001.78 1001.90 1002.03 1001.36 1000.43 999.30 998.42 997.44 996.48 995.63 994.49 993.63 993.39 993.46 992.67 991.67 991.08 991.56 992.47 992.98 993.91 995.00 995.77 995.17 994.66 994.30 995.17 996.24 997.29 998.47 999.70 1001.04 1001.54 1000.75
1019.52 1018.90 1018.14 1017.65 1016.89 1016.44 1016.25 1013.24 1008.02 1003.43 1001.84 1001.37 1001.33 1001.00 999.80 998.30 997.23 996.57 995.82 995.05 994.02 993.65 993.37 993.10 992.69 991.76 990.68 990.47 991.25 991.80 993.16 994.17 994.88 994.78 994.15 994.30 995.01 995.47 996.37 997.53 999.32 1000.10 1000.29 1000.64
1019.47 1018.73 1018.25 1017.33 1016.43 1015.46 1015.67 1012.69 1008.67 1006.85 1004.77 1003.20 1002.94 1001.58 1000.00 998.29 996.66 995.71 994.96 994.56 993.92 994.43 993.93 993.50 992.91 991.82 990.85 989.76 990.24 991.52 992.64 994.05 994.33 994.16 993.94 993.74 994.23 994.79 995.57 996.76 997.72 999.17 999.42 999.85
1019.22 1018.61 1018.15 1017.47 1016.29 1014.69 1014.20 1011.74 1010.36 1008.94 1007.24 1005.09 1003.28 1001.39 999.97 998.13 996.64 996.19 995.32 995.53 994.08 994.33 994.59 994.90 994.03 993.41 992.34 991.47 990.90 991.21 992.11 993.84 994.23 994.42 994.14 994.12 994.35 994.53 995.47 996.01 996.67 997.16 997.85 998.82
1019.02 1018.43 1018.02 1017.44 1016.71 1015.82 1014.30 1012.83 1011.44 1010.32 1007.61 1005.65 1004.58 1002.00 1000.41 998.24 996.92 996.20 996.57 996.56 994.59 994.22 995.26 995.12 993.83 993.58 993.07 992.34 992.03 992.16 992.61 994.03 994.82 995.38 994.86 994.75 994.85 994.41 994.83 995.52 995.53 995.98 996.98 997.42
1018.55 1018.23 1018.05 1017.38 1016.85 1016.78 1016.47 1014.94 1013.46 1011.09 1008.79 1007.00 1005.59 1003.40 1001.20 999.22 998.74 997.71 997.16 996.85 996.18 995.62 994.90 993.91 993.56 993.23 992.84 992.56 992.95 992.94 993.84 994.78 995.66 996.56 996.31 995.74 994.67 994.25 994.74 996.02 996.67 996.59 996.54 997.16
1018.18 1017.98 1017.71 1017.16 1016.70 1016.50 1015.99 1014.85 1013.64 1011.51 1010.07 1008.09 1005.91 1004.08 1002.54 1000.72 999.83 998.09 998.43 997.49 996.27 995.92 995.55 995.18 994.46 994.40 994.46 993.88 994.39 994.84 994.61 996.21 998.32 998.54 998.20 996.91 995.61 995.08 995.71 996.06 997.86 997.21 996.88 997.16
1017.81 1017.55 1017.32 1016.91 1016.49 1016.13 1015.63 1014.08 1013.05 1011.97 1010.58 1007.68 1006.59 1005.53 1003.96 1002.36 1001.38 999.81 998.70 997.56 996.89 996.60 997.06 996.79 996.30 995.59 995.62 995.76 995.66 995.97 996.36 997.17 998.88 1000.58 1000.73 999.50 997.14 996.18 996.24 996.47 998.18 997.91 997.69 997.88
1017.30 1017.08 1016.92 1016.57 1016.18 1015.89 1015.54 1014.00 1013.00 1012.42 1010.64 1007.98 1007.33 1006.35 1005.56 1004.25 1003.66 1002.01 1000.50 1000.25 998.46 997.34 997.80 997.90 997.17 996.65 995.89 996.95 997.29 998.07 998.81 999.24 1000.11 1001.49 1001.96 1000.98 999.39 998.77 996.26 999.00 998.89 998.28 998.33 998.51
1016.88 1016.67 1016.47 1016.28 1015.98 1015.63 1015.24 1013.80 1012.75 1012.45 1010.79 1008.34 1007.20 1006.46 1005.99 1004.97 1004.38 1004.11 1002.68 1000.80 999.83 999.24 999.04 998.68 998.28 997.33 996.81 996.38 996.72 998.14 999.94 1000.90 1001.01 1001.20 1002.47 1002.29 1000.90 999.67 999.07 999.98 999.05 998.90 999.08 999.15
1016.41 1016.23 1016.05 1016.01 1015.78 1015.38 1015.01 1013.66 1012.25 1011.88 1010.71 1008.29 1006.85 1006.21 1005.67 1005.19 1004.74 1004.52 1003.78 1003.19 1002.50 1001.67 1001.20 1000.49 999.32 997.94 997.63 997.79 999.12 999.75 1001.29 1003.23 1002.41 1002.31 1003.38 1003.81 1004.96 1002.57 1001.02 1000.07 1000.04 1000.14 999.86 999.56
1015.99 1015.76 1015.71 1015.62 1015.47 1015.18 1015.01 1014.09 1012.84 1012.04 1010.47 1007.39 1006.08 1005.09 1004.34 1004.38 1004.41 1004.30 1004.54 1003.63 1003.63 1003.27 1003.12 1002.44 1000.72 998.93 997.71 997.89 1000.04 1000.15 1001.88 1003.62 1003.81 1003.36 1004.38 1004.13 1003.57 1002.05 1001.98 1001.41 1001.06 1001.30 1001.03 1000.49
1015.61 1015.51 1015.38 1015.22 1015.10 1014.85 1014.67 1014.00 1012.69 1012.33 1010.88 1008.52 1005.36 1004.37 1004.37 1004.23 1004.38 1004.44 1004.56 1004.29 1004.04 1003.82 1003.13 1002.79 1001.70 1000.85 999.54 999.44 1000.78 1001.50 1002.43 1002.93 1003.60 1004.13 1004.01 1003.97 1003.88 1003.56 1002.68 1002.20 1001.65 1002.49 1002.18 1000.91
1015.27 1015.17 1015.04 1014.85 1014.74 1014.49 1014.03 1013.17 1012.22 1011.90 1011.82 1009.48 1006.87 1005.36 1004.26 1004.22 1004.41 1004.26 1004.10 1004.21 1004.17 1003.96 1003.45 1002.79 1002.13 1001.13 1001.00 1000.40 1000.02 1001.47 1002.10 1002.99 1003.80 1005.36 1005.49 1004.81 1005.35 1003.77 1002.71 1002.90 1002.80 1002.23 1002.87 1002.49
1014.95 1014.86 1014.71 1014.52 1014.46 1014.26 1013.75 1011.94 1011.58 1011.78 1011.46 1010.48 1007.54 1004.62 1004.27 1004.33 1004.35 1004.32 1004.28 1004.22 1004.15 1003.96 1003.57 1002.97 1002.17 1001.89 1001.65 1001.90 1002.00 1001.79 1001.90 1002.17 1002.54 1003.66 1003.68 1004.35 1004.69 1003.46 1003.01 1003.24 1002.63 1002.97 1003.07 1002.68
1014.66 1014.50 1014.40 1014.28 1014.26 1014.29 1013.62 1012.98 1012.06 1011.82 1012.08 1010.77 1007.71 1004.93 1003.88 1003.94 1004.07 1004.26 1004.35 1004.15 1003.99 1003.68 1003.49 1003.06 1002.72 1002.58 1002.42 1002.65 1002.68 1002.69 1002.45 1002.64 1002.69 1002.69 1002.73 1004.09 1004.32 1003.79 1003.29 1003.27 1003.19 1003.02 1003.02 1002.94
1014.31 1014.22 1014.12 1013.98 1013.75 1013.50 1012.91 1011.18 1011.03 1011.76 1011.75 1010.25 1008.04 1005.10 1004.06 1003.76 1003.86 1003.97 1003.69 1003.97 1003.92 1003.58 1003.27 1002.55 1002.68 1002.95 1002.99 1003.35 1003.09 1002.83 1002.77 1002.90 1003.23 1003.52 1003.90 1004.63 1004.72 1004.49 1004.48 1004.09 1003.90 1003.75 1003.77 1003.53
1014.18 1014.06 1013.93 1013.66 1013.17 1011.92 1010.86 1010.77 1010.98 1011.19 1011.46 1010.02 1007.68 1005.66 1004.25 1003.45 1003.38 1003.27 1003.43 1003.39 1003.56 1003.12 1003.21 1002.88 1002.78 1003.14 1003.70 1003.10 1003.01 1003.17 1003.27 1003.81 1004.16 1004.27 1004.70 1004.90 1004.87 1004.82 1004.70 1004.58 1004.56 1004.50 1004.29 1003.94
1014.16 1014.15 1013.55 1012.58 1011.08 1010.74 1010.89 1011.07 1010.95 1010.84 1009.90 1009.45 1007.68 1005.64 1004.26 1003.48 1003.12 1003.16 1003.31 1003.19 1002.97 1002.86 1002.70 1002.40 1002.86 1005.09 1005.58 1004.87 1004.14 1004.11 1004.19 1004.29 1004.57 1005.02 1005.44 1005.36 1005.32 1005.27 1005.02 1004.87 1004.64 1004.42 1004.21 1004.06
1014.17 1013.61 1012.93 1011.65 1010.99 1010.84 1010.27 1009.84 1009.49 1008.91 1008.17 1007.40 1006.46 1005.61 1004.85 1004.18 1004.21 1003.90 1003.56 1003.46 1002.65 1002.32 1002.33 1002.57 1003.72 1006.42 1007.27 1006.85 1006.22 1005.82 1005.56 1005.41 1005.38 1005.41 1005.51 1005.48 1005.47 1005.46 1005.37 1005.23 1005.17 1004.96 1004.71 1004.47
1014.12 1013.88 1012.95 1011.74 1010.86 1010.36 1009.85 1008.83 1007.97 1007.13 1006.38 1005.62 1005.33 1004.97 1004.85 1004.98 1004.81 1004.60 1004.16 1003.88 1003.28 1002.88 1002.59 1003.30 1006.07 1008.48 1008.45 1008.16 1007.74 1007.22 1006.83 1006.46 1006.23 1006.07 1006.10 1006.01 1005.81 1005.56 1005.42 1005.27 1005.04 1004.63 1004.38 1004.14
1013.53 1013.52 1012.72 1011.71 1010.97 1010.32 1009.11 1007.82 1006.62 1005.83 1005.33 1005.13 1004.96 1005.16 1005.25 1005.31 1005.15 1004.99 1004.80 1004.45 1004.17 1003.61 1004.14 1006.45 1008.93 1009.29 1009.11 1008.86 1008.45 1008.03 1007.61 1007.33 1006.95 1006.64 1006.28 1005.92 1005.65 1005.41 1005.16 1004.91 1004.70 1004.41 1004.20 1004.10
1014.01 1013.29 1012.53 1011.51 1009.88 1008.64 1007.42 1006.57 1005.77 1005.13 1004.97 1005.24 1005.28 1005.52 1005.71 1005.58 1005.59 1005.39 1005.34 1004.98 1004.84 1005.10 1005.71 1008.69 1009.72 1009.91 1009.71 1009.23 1008.65 1008.02 1007.63 1007.38 1007.02 1006.73 1006.46 1006.24 1005.98 1005.69 1005.43 1005.18 1005.01 1004.59 1004.30 1004.00
1013.62 1012.50 1011.63 1010.27 1008.79 1007.56 1007.28 1006.70 1006.47 1006.24 1005.78 1005.88 1006.11 1006.07 1006.06 1006.07 1006.04 1005.92 1005.97 1005.78 1005.97 1006.88 1008.61 1009.54 1010.08 1010.07 1009.75 1009.55 1009.10 1008.69 1008.36 1008.17 1007.92 1007.47 1007.26 1006.92 1006.42 1006.16 1005.43 1004.95 1004.79 1004.77 1004.89 1004.46
1012.70 1011.82 1011.14 1010.23 1009.58 1008.20 1007.11 1007.40 1006.92 1006.81 1006.66 1006.43 1006.65 1006.77 1006.81 1006.54 1006.54 1006.54 1006.58 1006.68 1007.82 1009.13 1009.63 1009.90 1010.24 1010.41 1010.30 1010.15 1009.85 1009.43 1009.08 1008.80 1008.38 1008.12 1007.61 1007.36 1007.01 1006.27 1005.83 1005.16 1005.24 1005.11 1004.89 1004.86
1011.97 1011.40 1011.23 1010.98 1010.21 1009.23 1007.81 1007.52 1007.71 1007.30 1007.13 1007.44 1007.43 1007.34 1007.08 1006.99 1007.15 1007.46 1007.95 1008.93 1009.60 1009.84 1009.96 1009.92 1010.03 1010.14 1010.09 1009.93 1009.79 1009.41 1009.00 1008.75 1008.33 1007.93 1007.65 1007.24 1006.83 1006.58 1006.03 1005.87 1005.68 1005.55 1005.15 1005.06
Wind_Speed
20 21 22 23 24 26 11 7 5 5 17 7 5 11 8 15 19 20 24 23 25 24 8 8 20 17 22 21 22 23 23 6 11 17 10 13 9 10 10 7 6 2 6 7
18 20 22 22 21 17 8 7 7 8 6 8 10 10 22 25 22 23 26 26 25 23 9 7 9 15 20 21 24 24 15 14 10 7 11 14 15 12 9 6 5 5 5 4
19 19 20 22 21 17 6 6 6 4 2 6 11 14 18 20 22 24 26 26 14 17 11 13 12 14 10 25 24 27 13 8 10 9 11 11 12 15 8 9 5 6 7 6
19 19 21 22 24 23 4 5 5 8 7 9 18 15 16 24 23 19 20 18 7 16 9 12 9 9 9 15 25 21 14 10 8 8 7 5 8 8 8 8 9 8 5 11
18 18 18 21 23 32 5 5 5 6 10 12 13 13 17 22 24 14 8 16 14 22 6 4 6 11 6 4 5 22 14 7 8 4 3 6 6 10 17 17 11 8 7 8
17 19 18 19 19 18 5 6 6 3 7 9 9 10 24 19 22 5 7 19 7 8 6 7 5 7 13 8 3 4 11 7 5 5 2 4 7 5 5 7 13 11 10 8
16 17 18 17 16 12 6 6 9 5 8 9 8 21 24 15 9 7 12 17 4 6 13 9 5 6 10 8 9 5 5 5 5 5 4 7 7 6 3 15 14 14 9 13
15 16 17 17 15 15 7 7 5 4 7 9 14 23 22 18 13 6 11 7 7 10 9 5 4 5 9 7 4 7 6 6 7 5 5 4 5 8 4 6 3 6 16 9
15 15 16 16 15 15 7 11 7 7 5 5 16 17 15 6 14 9 8 7 2 6 2 1 2 1 3 3 5 7 11 9 8 4 6 1 5 4 6 2 4 2 14 14
15 13 15 15 16 15 8 8 8 5 7 12 11 6 10 9 9 6 4 12 6 2 2 2 1 6 1 4 4 3 3 4 7 5 4 8 9 17 5 8 8 3 6 11
15 14 14 15 15 16 8 9 10 4 6 14 8 9 8 10 7 6 10 10 8 6 2 1 3 4 6 4 6 11 7 3 1 4 5 4 21 13 6 4 5 9 7 3
14 14 14 14 13 14 12 6 8 9 5 8 15 16 13 11 6 6 5 4 6 5 5 6 5 4 3 1 5 9 7 5 2 2 6 6 11 5 15 15 9 9 8 8
14 12 13 13 12 12 9 6 7 5 5 10 8 10 11 4 4 5 2 4 6 4 3 3 4 4 5 5 5 5 6 3 4 2 5 3 6 11 14 14 11 7 9 6
12 12 13 13 12 12 11 6 6 5 6 5 1 5 1 2 5 4 4 7 5 5 3 2 3 3 6 5 5 4 2 2 2 4 7 5 6 5 4 8 12 17 13 8
12 12 12 13 12 12 9 8 7 7 6 5 7 12 6 5 1 7 5 3 3 3 4 2 3 2 5 5 2 4 3 7 5 5 1 4 7 9 8 9 8 9 10 12
11 11 11 11 10 10 5 3 4 4 4 4 5 2 5 6 6 2 6 3 4 2 2 3 4 3 4 2 6 6 7 11 14 8 15 11 13 5 7 5 6 5 6 9
11 11 11 10 9 6 4 4 3 7 4 3 5 3 4 8 5 3 3 3 3 2 2 2 0 3 4 3 1 5 9 9 9 8 9 7 9 5 8 8 9 8 8 8
9 9 9 10 12 12 7 5 13 4 4 4 4 4 4 6 3 3 4 3 2 2 2 2 2 2 3 1 2 7 8 8 9 10 9 6 3 2 3 5 6 7 7 7
4 7 8 5 4 4 1 6 6 2 3 4 4 3 2 4 4 3 1 2 3 3 2 2 2 2 1 6 2 6 8 9 8 9 7 7 6 6 6 7 7 6 7 8
2 2 3 3 3 6 4 2 3 4 4 4 4 4 4 3 1 3 3 2 3 3 5 2 2 8 18 20 17 13 12 10 11 10 9 8 8 8 9 7 7 7 8 9
3 3 3 4 0 3 4 2 3 4 4 4 4 4 4 5 4 4 3 2 3 0 3 5 3 5 11 15 17 17 17 15 13 11 9 9 8 7 7 7 8 8 8 9
3 4 6 4 3 1 3 3 4 5 4 4 4 3 2 2 2 2 3 3 3 2 3 3 6 4 9 12 14 15 15 15 14 13 12 12 12 8 8 10 10 7 8 10
3 2 3 2 0 1 5 4 3 3 2 0 3 2 1 1 2 2 3 2 3 3 4 6 4 6 7 9 9 9 8 9 8 9 9 11 13 13 10 9 10 9 8 11
2 2 3 3 4 4 3 5 6 4 4 3 2 3 2 2 1 1 2 2 3 3 2 4 3 7 8 9 9 8 11 11 12 13 13 14 13 12 11 10 10 10 8 11
3 4 3 5 5 2 2 2 5 5 5 4 1 2 1 1 1 2 4 1 1 7 4 2 3 5 7 7 9 9 8 8 8 9 10 10 9 9 9 7 5 8 4 6
3 3 4 5 4 6 2 8 5 3 2 2 2 1 3 2 2 2 3 5 6 4 3 2 3 3 3 4 6 6 6 7 6 6 7 7 7 6 5 5 3 3 4 2
4 1 4 4 4 6 5 8 5 4 2 4 2 1 2 2 2 2 5 3 2 1 3 2 2 2 5 4 5 6 6 6 7 7 6 6 3 4 5 7 6 5 5 3
Wind_Direction
337 337 337 339 338 338 351 301 274 315 143 164 205 240 239 255 263 269 274 267 266 274 302 295 201 219 193 189 202 223 224 199 237 203 198 183 196 185 169 129 276 223 156 249
335 335 337 338 339 353 329 292 273 278 241 205 228 237 238 252 255 254 264 270 269 275 270 305 287 235 194 189 195 224 216 232 242 288 213 187 201 221 187 160 129 235 135 277
333 337 338 335 334 335 329 282 294 272 258 258 242 264 272 259 243 252 262 270 278 288 275 268 276 287 257 194 195 215 196 227 169 207 206 177 200 214 194 167 144 229 204 140
330 336 338 337 334 329 284 240 270 356 321 324 326 306 290 273 277 257 252 264 283 290 298 294 279 299 344 220 194 205 199 204 205 221 237 270 220 187 213 217 216 158 191 149
327 333 337 338 341 332 212 303 348 337 290 279 283 279 280 262 265 280 291 328 203 249 326 28 336 356 360 269 282 194 209 203 159 208 240 235 230 211 206 239 225 245 221 197
323 331 334 339 347 350 326 345 337 290 292 306 311 313 313 300 255 259 282 332 254 220 19 269 293 283 282 274 326 246 145 135 111 184 201 333 320 248 220 244 212 196 230 222
313 323 328 334 343 354 313 297 300 292 296 316 334 305 326 347 61 279 303 307 330 19 329 299 308 283 286 313 25 39 75 89 112 152 123 241 238 309 29 84 46 36 39 154
303 312 322 329 334 331 313 291 288 298 298 313 322 333 321 334 334 104 238 272 246 327 352 329 334 6 351 347 299 45 81 88 64 106 189 214 232 265 114 132 7 47 57 80
294 300 313 323 327 329 316 289 253 288 283 247 341 326 356 354 349 345 346 234 263 41 301 229 319 265 124 288 337 39 78 87 102 83 91 9 246 152 105 72 119 72 81 62
298 293 305 318 326 328 323 275 290 278 284 266 328 351 335 340 335 310 346 348 303 4 183 300 304 272 123 316 151 357 350 31 122 124 106 280 337 299 88 60 250 70 109 121
293 295 302 310 321 328 333 287 285 275 293 290 256 313 324 327 5 348 325 318 6 1 14 222 232 228 249 284 161 168 162 173 215 113 94 269 355 313 93 217 59 96 83 41
289 293 294 300 315 325 333 279 330 320 254 278 299 284 276 274 297 300 332 294 5 0 355 14 316 292 306 110 112 306 42 339 59 101 126 114 250 40 358 28 44 22 42 41
288 293 298 296 308 318 327 294 306 291 265 278 233 249 245 240 298 321 341 352 358 7 318 297 283 314 350 28 33 91 100 264 138 120 13 319 344 50 44 9 10 355 335 15
289 294 293 295 304 312 313 288 297 296 274 273 358 77 60 46 312 278 267 278 323 292 276 266 284 330 9 35 204 109 156 93 56 69 35 17 359 352 187 94 65 354 345 358
281 285 285 296 301 311 299 268 266 254 275 304 298 313 226 177 14 297 236 306 330 310 331 325 275 34 6 315 40 96 198 165 127 157 255 105 279 286 54 36 32 46 350 334
283 279 284 293 302 321 291 269 151 15 357 280 283 19 155 169 188 255 320 268 231 240 333 299 313 14 61 15 76 63 76 112 134 170 176 175 234 201 52 22 16 23 333 331
286 270 287 289 298 295 260 289 318 338 325 259 281 257 151 171 183 209 217 252 277 214 241 239 324 23 52 14 350 36 82 104 76 78 94 75 19 17 20 12 356 348 326 316
276 274 289 290 289 279 265 235 239 218 259 267 277 266 136 174 203 214 194 180 223 287 275 322 99 50 87 89 42 85 90 90 81 68 73 106 113 64 18 347 348 359 345 337
276 284 293 283 216 243 301 107 98 194 289 304 296 289 8 177 241 141 134 219 193 175 191 279 103 170 134 202 156 103 89 81 77 67 63 39 43 31 25 24 4 357 334 330
265 278 243 250 239 146 144 137 195 204 200 226 253 270 298 340 284 211 159 180 247 171 211 171 163 84 20 21 46 48 49 56 51 52 31 24 17 8 357 349 342 342 336 331
227 236 235 246 220 255 235 227 219 196 210 204 232 252 294 19 24 321 45 315 297 349 210 159 117 56 13 9 20 22 23 22 24 22 14 5 358 347 338 331 327 322 314 310
283 272 268 270 232 292 276 218 243 207 226 181 196 223 38 28 330 318 343 326 345 357 304 10 72 16 14 9 7 10 3 359 358 360 351 339 326 313 309 315 309 302 305 307
354 282 270 326 181 124 225 211 207 216 169 338 89 66 80 77 330 336 356 318 288 3 357 68 45 343 359 356 348 349 346 351 345 347 341 335 327 318 321 306 309 293 306 300
294 299 328 219 228 215 269 6 24 9 102 74 352 103 43 19 318 304 220 354 346 305 56 65 20 3 346 344 339 341 359 351 352 347 336 330 324 318 320 302 309 303 329 314
253 237 268 227 283 42 147 45 86 346 47 75 63 33 3 217 63 288 24 187 312 41 70 81 63 352 350 349 334 348 345 351 328 329 338 340 349 337 324 313 358 73 32 7
257 256 311 335 352 252 177 88 24 67 57 39 24 60 320 61 351 331 2 314 51 70 27 56 79 359 6 346 345 339 348 335 336 329 345 341 322 344 345 41 24 323 177 154
293 154 43 295 339 308 350 92 48 329 8 19 336 246 36 206 48 66 32 55 89 9 337 54 133 359 335 329 311 302 305 294 310 313 307 289 278 297 6 13 5 27 31 59